,,PA_Meas_PMT16A,,PR_Meas_QMR101_102,,RH_Meas_QMH101,,SR_Meas_QMS101,,TA_Meas_QMH101,,GenWind,,GenWind,
time,status,PA,status,PR,status,RH,status,SR,status,TA,status,DirAvg,status,SpdAvg,
2012-08-20, 00:00:04,VALID,918.068,VALID,0,VALID,96.7716,VALID,0,VALID,20.543,VALID,132,VALID,0,
2012-08-20, 00:01:04,VALID,918.051,VALID,0,VALID,96.7411,VALID,0,VALID,20.465,VALID,132,VALID,0,
2012-08-20, 00:02:04,VALID,918.045,VALID,0,VALID,96.6802,VALID,0,VALID,20.4454,VALID,132,VALID,0,
2012-08-20, 00:03:04,VALID,918.02,VALID,0,VALID,96.6725,VALID,0,VALID,20.4259,VALID,132,VALID,0,
2012-08-20, 00:04:04,VALID,917.992,VALID,0,VALID,96.6649,VALID,0,VALID,20.408,VALID,132,VALID,0,
2012-08-20, 00:05:04,VALID,918.002,VALID,0,VALID,96.7107,VALID,0,VALID,20.408,VALID,132,VALID,0,
2012-08-20, 00:06:04,VALID,917.97,VALID,0,VALID,96.7564,VALID,0,VALID,20.4275,VALID,42,VALID,0,
2012-08-20, 00:07:04,VALID,917.951,VALID,0,VALID,96.7411,VALID,0,VALID,20.3869,VALID,42,VALID,0,
2012-08-20, 00:08:04,VALID,917.976,VALID,0,VALID,96.7411,VALID,0,VALID,20.3674,VALID,42,VALID,0,
2012-08-20, 00:09:04,VALID,917.988,VALID,0,VALID,96.764,VALID,0,VALID,20.3674,VALID,42,VALID,0,
2012-08-20, 00:10:04,VALID,917.99,VALID,0,VALID,96.7945,VALID,0,VALID,20.3885,VALID,42,VALID,0,
2012-08-20, 00:11:04,VALID,917.986,VALID,0,VALID,96.7945,VALID,0,VALID,20.408,VALID,42,VALID,0,
2012-08-20, 00:12:04,VALID,917.988,VALID,0,VALID,96.8098,VALID,0,VALID,20.3869,VALID,42,VALID,0,
2012-08-20, 00:13:04,VALID,917.947,VALID,0,VALID,96.825,VALID,0,VALID,20.4064,VALID,42,VALID,0,
2012-08-20, 00:14:04,VALID,917.947,VALID,0,VALID,96.8479,VALID,0,VALID,20.4259,VALID,42,VALID,0,
2012-08-20, 00:15:04,VALID,917.912,VALID,0,VALID,96.8555,VALID,0,VALID,20.4259,VALID,42,VALID,0,
2012-08-20, 00:16:04,VALID,917.905,VALID,0,VALID,96.8631,VALID,0,VALID,20.4454,VALID,42,VALID,0,
2012-08-20, 00:17:04,VALID,917.904,VALID,0,VALID,96.8936,VALID,0,VALID,20.4454,VALID,42,VALID,0,
2012-08-20, 00:18:04,VALID,917.904,VALID,0,VALID,96.8936,VALID,0,VALID,20.486,VALID,42,VALID,0,
2012-08-20, 00:19:04,VALID,917.904,VALID,0,VALID,96.9012,VALID,0,VALID,20.465,VALID,41,VALID,0,
2012-08-20, 00:20:04,VALID,917.9,VALID,0,VALID,96.9165,VALID,0,VALID,20.5055,VALID,42,VALID,0,
2012-08-20, 00:21:04,VALID,917.889,VALID,0,VALID,96.8936,VALID,0,VALID,20.4275,VALID,42,VALID,0,
2012-08-20, 00:22:04,VALID,917.891,VALID,0,VALID,96.886,VALID,0,VALID,20.465,VALID,42,VALID,0,
2012-08-20, 00:23:04,VALID,917.882,VALID,0,VALID,96.8936,VALID,0,VALID,20.5235,VALID,42,VALID,0,
2012-08-20, 00:24:04,VALID,917.856,VALID,0,VALID,96.9012,VALID,0,VALID,20.4665,VALID,42,VALID,0,
2012-08-20, 00:25:04,VALID,917.855,VALID,0,VALID,96.9012,VALID,0,VALID,20.4259,VALID,42,VALID,0,
2012-08-20, 00:26:04,VALID,917.874,VALID,0,VALID,96.9012,VALID,0,VALID,20.4454,VALID,42,VALID,0,
2012-08-20, 00:27:04,VALID,917.879,VALID,0,VALID,96.9317,VALID,0,VALID,20.465,VALID,42,VALID,0,
2012-08-20, 00:28:04,VALID,917.915,VALID,0,VALID,96.9241,VALID,0,VALID,20.525,VALID,42,VALID,0,
2012-08-20, 00:29:04,VALID,917.865,VALID,0,VALID,96.947,VALID,0,VALID,20.4845,VALID,42,VALID,0,
2012-08-20, 00:30:04,VALID,917.9,VALID,0,VALID,96.9546,VALID,0,VALID,20.5055,VALID,42,VALID,0,
2012-08-20, 00:31:04,VALID,917.906,VALID,0,VALID,96.9394,VALID,0,VALID,20.5055,VALID,42,VALID,0,
2012-08-20, 00:32:04,VALID,917.886,VALID,0,VALID,96.9317,VALID,0,VALID,20.465,VALID,42,VALID,0,
2012-08-20, 00:33:04,VALID,917.877,VALID,0,VALID,96.9546,VALID,0,VALID,20.5055,VALID,42,VALID,0,
2012-08-20, 00:34:04,VALID,917.867,VALID,0,VALID,96.9546,VALID,0,VALID,20.504,VALID,42,VALID,0,
2012-08-20, 00:35:04,VALID,917.862,VALID,0,VALID,96.9394,VALID,0,VALID,20.4845,VALID,42,VALID,0,
2012-08-20, 00:36:04,VALID,917.878,VALID,0,VALID,96.9241,VALID,0,VALID,20.486,VALID,42,VALID,0,
2012-08-20, 00:37:04,VALID,917.84,VALID,0,VALID,96.9546,VALID,0,VALID,20.465,VALID,42,VALID,0,
2012-08-20, 00:38:04,VALID,917.831,VALID,0,VALID,96.9622,VALID,0,VALID,20.486,VALID,42,VALID,0,
2012-08-20, 00:39:04,VALID,917.85,VALID,0,VALID,96.9546,VALID,0,VALID,20.4665,VALID,42,VALID,0,
2012-08-20, 00:40:04,VALID,917.857,VALID,0,VALID,96.947,VALID,0,VALID,20.4845,VALID,42,VALID,0,
2012-08-20, 00:41:04,VALID,917.879,VALID,0,VALID,96.9927,VALID,0,VALID,20.4845,VALID,42,VALID,0,
2012-08-20, 00:42:04,VALID,917.891,VALID,0,VALID,96.9775,VALID,0,VALID,20.486,VALID,42,VALID,0,
2012-08-20, 00:43:04,VALID,917.887,VALID,0,VALID,96.9775,VALID,0,VALID,20.486,VALID,42,VALID,0,
2012-08-20, 00:44:04,VALID,917.922,VALID,0,VALID,97.0156,VALID,0,VALID,20.486,VALID,42,VALID,0,
2012-08-20, 00:45:04,VALID,917.898,VALID,0,VALID,97.0003,VALID,0,VALID,20.465,VALID,42,VALID,0,
2012-08-20, 00:46:04,VALID,917.909,VALID,0,VALID,97.008,VALID,0,VALID,20.4845,VALID,42,VALID,0,
2012-08-20, 00:47:04,VALID,917.893,VALID,0,VALID,97.0156,VALID,0,VALID,20.504,VALID,42,VALID,0,
2012-08-20, 00:48:04,VALID,917.886,VALID,0,VALID,97.0156,VALID,0.107441,VALID,20.504,VALID,42,VALID,0,
2012-08-20, 00:49:04,VALID,917.826,VALID,0,VALID,97.0308,VALID,0,VALID,20.5625,VALID,42,VALID,0,
2012-08-20, 00:50:04,VALID,917.803,VALID,0,VALID,97.0003,VALID,0,VALID,20.543,VALID,42,VALID,0,
2012-08-20, 00:51:04,VALID,917.793,VALID,0,VALID,97.0461,VALID,0,VALID,20.543,VALID,42,VALID,0,
2012-08-20, 00:52:04,VALID,917.76,VALID,0,VALID,97.069,VALID,0,VALID,20.582,VALID,42,VALID,0,
2012-08-20, 00:53:04,VALID,917.763,VALID,0,VALID,97.069,VALID,0,VALID,20.6015,VALID,42,VALID,0,
2012-08-20, 00:54:04,VALID,917.692,VALID,0,VALID,97.069,VALID,0,VALID,20.6226,VALID,42,VALID,0,
2012-08-20, 00:55:04,VALID,917.686,VALID,0,VALID,97.0613,VALID,0.107441,VALID,20.6015,VALID,42,VALID,0,
2012-08-20, 00:56:04,VALID,917.688,VALID,0,VALID,97.0461,VALID,0,VALID,20.6015,VALID,42,VALID,0,
2012-08-20, 00:57:04,VALID,917.618,VALID,0,VALID,97.0537,VALID,0,VALID,20.6015,VALID,42,VALID,0,
2012-08-20, 00:58:04,VALID,917.638,VALID,0,VALID,97.0385,VALID,0,VALID,20.5625,VALID,42,VALID,0,
2012-08-20, 00:59:04,VALID,917.587,VALID,0,VALID,97.0385,VALID,0.107441,VALID,20.5625,VALID,42,VALID,0,
2012-08-20, 01:00:04,VALID,917.568,VALID,0,VALID,97.0156,VALID,0,VALID,20.543,VALID,42,VALID,0,
2012-08-20, 01:01:04,VALID,917.551,VALID,0,VALID,97.0385,VALID,0,VALID,20.543,VALID,42,VALID,0,
2012-08-20, 01:02:04,VALID,917.532,VALID,0,VALID,97.0385,VALID,0,VALID,20.543,VALID,42,VALID,0,
2012-08-20, 01:03:04,VALID,917.561,VALID,0,VALID,97.0385,VALID,0,VALID,20.6015,VALID,42,VALID,0,
2012-08-20, 01:04:04,VALID,917.552,VALID,0,VALID,97.0232,VALID,0,VALID,20.5235,VALID,42,VALID,0,
2012-08-20, 01:05:04,VALID,917.552,VALID,0,VALID,97.0308,VALID,0,VALID,20.5055,VALID,42,VALID,0,
2012-08-20, 01:06:04,VALID,917.557,VALID,0,VALID,97.0308,VALID,0.107441,VALID,20.5235,VALID,42,VALID,0,
2012-08-20, 01:07:04,VALID,917.587,VALID,0,VALID,97.0385,VALID,0,VALID,20.504,VALID,42,VALID,0,
2012-08-20, 01:08:04,VALID,917.583,VALID,0,VALID,97.0308,VALID,0,VALID,20.504,VALID,42,VALID,0,
2012-08-20, 01:09:04,VALID,917.54,VALID,0,VALID,97.0232,VALID,0,VALID,20.504,VALID,42,VALID,0,
2012-08-20, 01:10:04,VALID,917.589,VALID,0,VALID,97.0461,VALID,0,VALID,20.5235,VALID,42,VALID,0,
2012-08-20, 01:11:04,VALID,917.573,VALID,0,VALID,97.0232,VALID,0,VALID,20.5235,VALID,42,VALID,0,
2012-08-20, 01:12:04,VALID,917.567,VALID,0,VALID,97.008,VALID,0,VALID,20.5445,VALID,42,VALID,0,
2012-08-20, 01:13:04,VALID,917.554,VALID,0,VALID,97.0003,VALID,0,VALID,20.5836,VALID,42,VALID,0,
2012-08-20, 01:14:04,VALID,917.573,VALID,0,VALID,97.0156,VALID,0,VALID,20.5836,VALID,42,VALID,0,
2012-08-20, 01:15:04,VALID,917.532,VALID,0,VALID,97.008,VALID,0,VALID,20.6015,VALID,42,VALID,0,
2012-08-20, 01:16:04,VALID,917.519,VALID,0,VALID,97.0156,VALID,0,VALID,20.5625,VALID,42,VALID,0,
2012-08-20, 01:17:04,VALID,917.498,VALID,0,VALID,96.9775,VALID,0,VALID,20.5641,VALID,42,VALID,0,
2012-08-20, 01:18:04,VALID,917.481,VALID,0,VALID,96.9851,VALID,0,VALID,20.5625,VALID,42,VALID,0,
2012-08-20, 01:19:04,VALID,917.452,VALID,0,VALID,96.9775,VALID,0,VALID,20.543,VALID,42,VALID,0,
2012-08-20, 01:20:04,VALID,917.408,VALID,0,VALID,96.9698,VALID,0,VALID,20.5625,VALID,42,VALID,0,
2012-08-20, 01:21:04,VALID,917.372,VALID,0,VALID,96.9851,VALID,0,VALID,20.543,VALID,42,VALID,0,
2012-08-20, 01:22:04,VALID,917.342,VALID,0,VALID,96.9622,VALID,0,VALID,20.5235,VALID,42,VALID,0,
2012-08-20, 01:23:04,VALID,917.317,VALID,0,VALID,96.9546,VALID,0,VALID,20.4845,VALID,42,VALID,0,
2012-08-20, 01:24:04,VALID,917.315,VALID,0,VALID,96.9622,VALID,0,VALID,20.504,VALID,42,VALID,0,
2012-08-20, 01:25:04,VALID,917.319,VALID,0,VALID,96.9698,VALID,0,VALID,20.4845,VALID,42,VALID,0,
2012-08-20, 01:26:04,VALID,917.314,VALID,0,VALID,96.9927,VALID,0,VALID,20.465,VALID,36,VALID,0,
2012-08-20, 01:27:04,VALID,917.309,VALID,0,VALID,96.9851,VALID,0,VALID,20.465,VALID,36,VALID,0,
2012-08-20, 01:28:04,VALID,917.282,VALID,0,VALID,97.0003,VALID,0,VALID,20.4454,VALID,36,VALID,0,
2012-08-20, 01:29:04,VALID,917.279,VALID,0,VALID,97.008,VALID,0,VALID,20.4259,VALID,36,VALID,0,
2012-08-20, 01:30:04,VALID,917.242,VALID,0,VALID,97.008,VALID,0,VALID,20.4259,VALID,36,VALID,0,
2012-08-20, 01:31:04,VALID,917.22,VALID,0,VALID,97.0308,VALID,0,VALID,20.4259,VALID,36,VALID,0,
2012-08-20, 01:32:04,VALID,917.234,VALID,0,VALID,97.0156,VALID,0,VALID,20.4064,VALID,36,VALID,0,
2012-08-20, 01:33:05,VALID,917.223,VALID,0,VALID,97.0308,VALID,0,VALID,20.4064,VALID,36,VALID,0,
2012-08-20, 01:34:05,VALID,917.172,VALID,0,VALID,97.0308,VALID,0,VALID,20.4259,VALID,36,VALID,0,
2012-08-20, 01:35:05,VALID,917.194,VALID,0,VALID,97.0461,VALID,0,VALID,20.4454,VALID,36,VALID,0,
2012-08-20, 01:36:05,VALID,917.152,VALID,0,VALID,97.0613,VALID,0.107441,VALID,20.4454,VALID,36,VALID,0,
2012-08-20, 01:37:05,VALID,917.153,VALID,0,VALID,97.0461,VALID,0,VALID,20.447,VALID,36,VALID,0,
2012-08-20, 01:38:05,VALID,917.143,VALID,0,VALID,97.0766,VALID,0,VALID,20.4454,VALID,36,VALID,0,
2012-08-20, 01:39:05,VALID,917.104,VALID,0,VALID,97.0766,VALID,0,VALID,20.465,VALID,36,VALID,0,
2012-08-20, 01:40:05,VALID,917.084,VALID,0,VALID,97.0842,VALID,0,VALID,20.486,VALID,36,VALID,0,
2012-08-20, 01:41:05,VALID,917.097,VALID,0,VALID,97.069,VALID,0,VALID,20.465,VALID,36,VALID,0,
2012-08-20, 01:42:05,VALID,917.065,VALID,0,VALID,97.0842,VALID,0,VALID,20.4454,VALID,36,VALID,0,
2012-08-20, 01:43:05,VALID,917.049,VALID,0,VALID,97.0766,VALID,0,VALID,20.4259,VALID,36,VALID,0,
2012-08-20, 01:44:05,VALID,917.039,VALID,0,VALID,97.0766,VALID,0,VALID,20.4259,VALID,36,VALID,0,
2012-08-20, 01:45:05,VALID,917.03,VALID,0,VALID,97.0461,VALID,0,VALID,20.4064,VALID,36,VALID,0,
2012-08-20, 01:46:05,VALID,916.996,VALID,0,VALID,97.0766,VALID,0,VALID,20.4064,VALID,36,VALID,0,
2012-08-20, 01:47:05,VALID,916.991,VALID,0,VALID,97.069,VALID,0,VALID,20.4064,VALID,36,VALID,0,
2012-08-20, 01:48:05,VALID,916.978,VALID,0,VALID,97.0842,VALID,0,VALID,20.4064,VALID,36,VALID,0,
2012-08-20, 01:49:05,VALID,916.941,VALID,0,VALID,97.0842,VALID,0,VALID,20.4064,VALID,36,VALID,0,
2012-08-20, 01:50:05,VALID,916.893,VALID,0,VALID,97.069,VALID,0,VALID,20.4064,VALID,36,VALID,0,
2012-08-20, 01:51:05,VALID,916.896,VALID,0,VALID,97.0918,VALID,0,VALID,20.4064,VALID,36,VALID,0,
2012-08-20, 01:52:05,VALID,916.875,VALID,0,VALID,97.0766,VALID,0,VALID,20.3869,VALID,36,VALID,0,
2012-08-20, 01:53:05,VALID,916.852,VALID,0,VALID,97.069,VALID,0,VALID,20.3869,VALID,36,VALID,0,
2012-08-20, 01:54:05,VALID,916.831,VALID,0,VALID,97.0842,VALID,0,VALID,20.4064,VALID,36,VALID,0,
2012-08-20, 01:55:05,VALID,916.821,VALID,0,VALID,97.0842,VALID,0,VALID,20.4064,VALID,36,VALID,0,
2012-08-20, 01:56:05,VALID,916.859,VALID,0,VALID,97.0918,VALID,0,VALID,20.4064,VALID,36,VALID,0,
2012-08-20, 01:57:05,VALID,916.816,VALID,0,VALID,97.0918,VALID,0,VALID,20.4064,VALID,36,VALID,0,
2012-08-20, 01:58:05,VALID,916.828,VALID,0,VALID,97.0842,VALID,0,VALID,20.3869,VALID,36,VALID,0,
2012-08-20, 01:59:05,VALID,916.828,VALID,0,VALID,97.0994,VALID,0,VALID,20.4064,VALID,36,VALID,0,
2012-08-20, 02:00:05,VALID,916.802,VALID,0,VALID,97.0994,VALID,0,VALID,20.3869,VALID,36,VALID,0,
2012-08-20, 02:01:05,VALID,916.782,VALID,0,VALID,97.1147,VALID,0,VALID,20.4064,VALID,36,VALID,0,
2012-08-20, 02:02:05,VALID,916.781,VALID,0,VALID,97.0994,VALID,0,VALID,20.4259,VALID,36,VALID,0,
2012-08-20, 02:03:05,VALID,916.763,VALID,0,VALID,97.1223,VALID,0,VALID,20.4454,VALID,36,VALID,0,
2012-08-20, 02:04:05,VALID,916.773,VALID,0,VALID,97.1147,VALID,0,VALID,20.4454,VALID,36,VALID,0,
2012-08-20, 02:05:05,VALID,916.741,VALID,0,VALID,97.1147,VALID,0,VALID,20.465,VALID,36,VALID,0,
2012-08-20, 02:06:05,VALID,916.773,VALID,0,VALID,97.1071,VALID,0,VALID,20.4454,VALID,36,VALID,0,
2012-08-20, 02:07:05,VALID,916.755,VALID,0,VALID,97.1071,VALID,0,VALID,20.4454,VALID,36,VALID,0,
2012-08-20, 02:08:05,VALID,916.735,VALID,0,VALID,97.0842,VALID,0,VALID,20.4454,VALID,36,VALID,0,
2012-08-20, 02:09:05,VALID,916.747,VALID,0,VALID,97.0994,VALID,0,VALID,20.465,VALID,36,VALID,0,
2012-08-20, 02:10:05,VALID,916.758,VALID,0,VALID,97.1071,VALID,0,VALID,20.4454,VALID,36,VALID,0,
2012-08-20, 02:11:05,VALID,916.743,VALID,0,VALID,97.1147,VALID,0,VALID,20.465,VALID,36,VALID,0,
2012-08-20, 02:12:05,VALID,916.733,VALID,0,VALID,97.0994,VALID,0,VALID,20.465,VALID,36,VALID,0,
2012-08-20, 02:13:05,VALID,916.729,VALID,0,VALID,97.0918,VALID,0,VALID,20.465,VALID,36,VALID,0,
2012-08-20, 02:14:05,VALID,916.708,VALID,0,VALID,97.069,VALID,0,VALID,20.4259,VALID,36,VALID,0,
2012-08-20, 02:15:05,VALID,916.688,VALID,0,VALID,97.069,VALID,0,VALID,20.4665,VALID,36,VALID,0,
2012-08-20, 02:16:05,VALID,916.686,VALID,0,VALID,97.0842,VALID,0.107441,VALID,20.4454,VALID,36,VALID,0,
2012-08-20, 02:17:05,VALID,916.679,VALID,0,VALID,97.0766,VALID,0,VALID,20.4454,VALID,36,VALID,0,
2012-08-20, 02:18:05,VALID,916.682,VALID,0,VALID,97.0537,VALID,0,VALID,20.465,VALID,36,VALID,0,
2012-08-20, 02:19:05,VALID,916.655,VALID,0,VALID,97.0766,VALID,0,VALID,20.465,VALID,36,VALID,0,
2012-08-20, 02:20:05,VALID,916.682,VALID,0,VALID,97.0766,VALID,0,VALID,20.465,VALID,36,VALID,0,
2012-08-20, 02:21:05,VALID,916.66,VALID,0,VALID,97.069,VALID,0.107441,VALID,20.465,VALID,36,VALID,0,
2012-08-20, 02:22:05,VALID,916.659,VALID,0,VALID,97.0461,VALID,0,VALID,20.465,VALID,36,VALID,0,
2012-08-20, 02:23:05,VALID,916.652,VALID,0,VALID,97.0308,VALID,0,VALID,20.4259,VALID,36,VALID,0,
2012-08-20, 02:24:05,VALID,916.622,VALID,0,VALID,97.0461,VALID,0,VALID,20.4259,VALID,36,VALID,0,
2012-08-20, 02:25:05,VALID,916.669,VALID,0,VALID,97.0385,VALID,0,VALID,20.4454,VALID,36,VALID,0,
2012-08-20, 02:26:05,VALID,916.65,VALID,0,VALID,97.0461,VALID,0,VALID,20.4259,VALID,36,VALID,0,
2012-08-20, 02:27:05,VALID,916.644,VALID,0,VALID,97.0461,VALID,0,VALID,20.4259,VALID,36,VALID,0,
2012-08-20, 02:28:05,VALID,916.641,VALID,0,VALID,97.0537,VALID,0.107441,VALID,20.4259,VALID,36,VALID,0,
2012-08-20, 02:29:05,VALID,916.635,VALID,0,VALID,97.0613,VALID,0,VALID,20.447,VALID,36,VALID,0,
2012-08-20, 02:30:05,VALID,916.65,VALID,0,VALID,97.0537,VALID,0,VALID,20.4259,VALID,36,VALID,0,
2012-08-20, 02:31:05,VALID,916.673,VALID,0,VALID,97.0461,VALID,0,VALID,20.4259,VALID,36,VALID,0,
2012-08-20, 02:32:05,VALID,916.66,VALID,0,VALID,97.0842,VALID,0,VALID,20.465,VALID,36,VALID,0,
2012-08-20, 02:33:05,VALID,916.71,VALID,0,VALID,97.0537,VALID,0,VALID,20.4845,VALID,36,VALID,0,
2012-08-20, 02:34:05,VALID,916.691,VALID,0,VALID,97.069,VALID,0,VALID,20.4845,VALID,36,VALID,0,
2012-08-20, 02:35:05,VALID,916.693,VALID,0,VALID,97.0842,VALID,0,VALID,20.504,VALID,36,VALID,0,
2012-08-20, 02:36:05,VALID,916.721,VALID,0,VALID,97.0766,VALID,0,VALID,20.504,VALID,36,VALID,0,
2012-08-20, 02:37:05,VALID,916.699,VALID,0,VALID,97.069,VALID,0,VALID,20.504,VALID,36,VALID,0,
2012-08-20, 02:38:05,VALID,916.687,VALID,0,VALID,97.0613,VALID,0,VALID,20.4845,VALID,36,VALID,0,
2012-08-20, 02:39:05,VALID,916.692,VALID,0,VALID,97.0537,VALID,0,VALID,20.525,VALID,36,VALID,0,
2012-08-20, 02:40:05,VALID,916.711,VALID,0,VALID,97.0537,VALID,0,VALID,20.504,VALID,36,VALID,0,
2012-08-20, 02:41:05,VALID,916.71,VALID,0,VALID,97.0613,VALID,0,VALID,20.4845,VALID,36,VALID,0,
2012-08-20, 02:42:05,VALID,916.725,VALID,0,VALID,97.0385,VALID,0,VALID,20.4845,VALID,36,VALID,0,
2012-08-20, 02:43:05,VALID,916.736,VALID,0,VALID,97.0308,VALID,0,VALID,20.465,VALID,36,VALID,0,
2012-08-20, 02:44:05,VALID,916.735,VALID,0,VALID,97.0232,VALID,0,VALID,20.465,VALID,36,VALID,0,
2012-08-20, 02:45:05,VALID,916.763,VALID,0,VALID,97.0385,VALID,0,VALID,20.4454,VALID,36,VALID,0,
2012-08-20, 02:46:05,VALID,916.762,VALID,0,VALID,97.008,VALID,0.107441,VALID,20.4259,VALID,36,VALID,0,
2012-08-20, 02:47:05,VALID,916.772,VALID,0,VALID,97.0308,VALID,0,VALID,20.4064,VALID,36,VALID,0,
2012-08-20, 02:48:05,VALID,916.743,VALID,0,VALID,96.9927,VALID,0,VALID,20.4275,VALID,36,VALID,0,
2012-08-20, 02:49:05,VALID,916.772,VALID,0,VALID,97.0308,VALID,0,VALID,20.447,VALID,36,VALID,0,
2012-08-20, 02:50:05,VALID,916.759,VALID,0,VALID,97.0003,VALID,0,VALID,20.447,VALID,36,VALID,0,
2012-08-20, 02:51:05,VALID,916.759,VALID,0,VALID,97.0156,VALID,0,VALID,20.4665,VALID,36,VALID,0,
2012-08-20, 02:52:05,VALID,916.744,VALID,0,VALID,97.0156,VALID,0,VALID,20.4454,VALID,36,VALID,0,
2012-08-20, 02:53:05,VALID,916.748,VALID,0,VALID,97.0232,VALID,0,VALID,20.447,VALID,36,VALID,0,
2012-08-20, 02:54:05,VALID,916.767,VALID,0,VALID,97.0385,VALID,0,VALID,20.447,VALID,36,VALID,0,
2012-08-20, 02:55:05,VALID,916.76,VALID,0,VALID,97.0003,VALID,0,VALID,20.4064,VALID,36,VALID,0,
2012-08-20, 02:56:05,VALID,916.759,VALID,0,VALID,96.9927,VALID,0,VALID,20.3885,VALID,36,VALID,0,
2012-08-20, 02:57:05,VALID,916.766,VALID,0,VALID,96.9775,VALID,0,VALID,20.3885,VALID,36,VALID,0,
2012-08-20, 02:58:05,VALID,916.773,VALID,0,VALID,96.9851,VALID,0,VALID,20.3674,VALID,36,VALID,0,
2012-08-20, 02:59:05,VALID,916.783,VALID,0,VALID,97.008,VALID,0,VALID,20.408,VALID,36,VALID,0,
2012-08-20, 03:00:05,VALID,916.791,VALID,0,VALID,97.008,VALID,0,VALID,20.3885,VALID,36,VALID,0,
2012-08-20, 03:01:05,VALID,916.783,VALID,0,VALID,97.008,VALID,0,VALID,20.3674,VALID,36,VALID,0,
2012-08-20, 03:02:05,VALID,916.795,VALID,0,VALID,96.9927,VALID,0,VALID,20.3885,VALID,36,VALID,0,
2012-08-20, 03:03:05,VALID,916.825,VALID,0,VALID,97.0232,VALID,0,VALID,20.3674,VALID,36,VALID,0,
2012-08-20, 03:04:05,VALID,916.833,VALID,0,VALID,97.0308,VALID,0,VALID,20.408,VALID,36,VALID,0,
2012-08-20, 03:05:05,VALID,916.862,VALID,0,VALID,97.0156,VALID,0,VALID,20.3869,VALID,36,VALID,0,
2012-08-20, 03:06:05,VALID,916.867,VALID,0,VALID,97.0308,VALID,0,VALID,20.4064,VALID,36,VALID,0,
2012-08-20, 03:07:05,VALID,916.888,VALID,0,VALID,97.0308,VALID,0,VALID,20.4064,VALID,36,VALID,0,
2012-08-20, 03:08:05,VALID,916.93,VALID,0,VALID,97.0003,VALID,0,VALID,20.4064,VALID,36,VALID,0,
2012-08-20, 03:09:05,VALID,916.903,VALID,0,VALID,97.0232,VALID,0,VALID,20.4064,VALID,36,VALID,0,
2012-08-20, 03:10:05,VALID,916.929,VALID,0,VALID,97.008,VALID,0,VALID,20.4064,VALID,36,VALID,0,
2012-08-20, 03:11:05,VALID,916.914,VALID,0,VALID,97.0308,VALID,0,VALID,20.4259,VALID,36,VALID,0,
2012-08-20, 03:12:05,VALID,916.933,VALID,0,VALID,97.008,VALID,0,VALID,20.4665,VALID,36,VALID,0,
2012-08-20, 03:13:05,VALID,916.924,VALID,0,VALID,96.9927,VALID,0,VALID,20.4665,VALID,36,VALID,0,
2012-08-20, 03:14:05,VALID,916.888,VALID,0,VALID,96.9775,VALID,0,VALID,20.4259,VALID,36,VALID,0,
2012-08-20, 03:15:05,VALID,916.91,VALID,0,VALID,97.0003,VALID,0,VALID,20.447,VALID,36,VALID,0,
2012-08-20, 03:16:05,VALID,916.92,VALID,0,VALID,96.9775,VALID,0,VALID,20.447,VALID,36,VALID,0,
2012-08-20, 03:17:05,VALID,916.885,VALID,0,VALID,96.9851,VALID,0,VALID,20.447,VALID,36,VALID,0,
2012-08-20, 03:18:05,VALID,916.933,VALID,0,VALID,96.9851,VALID,0,VALID,20.4259,VALID,36,VALID,0,
2012-08-20, 03:19:05,VALID,916.932,VALID,0,VALID,96.9775,VALID,0,VALID,20.4064,VALID,36,VALID,0,
2012-08-20, 03:20:05,VALID,916.932,VALID,0,VALID,96.9775,VALID,0,VALID,20.408,VALID,36,VALID,0,
2012-08-20, 03:21:05,VALID,916.928,VALID,0,VALID,96.9927,VALID,0,VALID,20.3885,VALID,36,VALID,0,
2012-08-20, 03:22:05,VALID,916.897,VALID,0,VALID,96.9546,VALID,0,VALID,20.3674,VALID,302,VALID,0,
2012-08-20, 03:23:05,VALID,916.903,VALID,0,VALID,96.9622,VALID,0,VALID,20.3674,VALID,302,VALID,0,
2012-08-20, 03:24:05,VALID,916.884,VALID,0,VALID,96.9622,VALID,0,VALID,20.408,VALID,302,VALID,0,
2012-08-20, 03:25:05,VALID,916.844,VALID,0,VALID,96.9775,VALID,0,VALID,20.3869,VALID,302,VALID,0,
2012-08-20, 03:26:05,VALID,916.814,VALID,0,VALID,96.9851,VALID,0,VALID,20.3885,VALID,302,VALID,0,
2012-08-20, 03:27:05,VALID,916.793,VALID,0,VALID,96.9622,VALID,0,VALID,20.3674,VALID,302,VALID,0,
2012-08-20, 03:28:05,VALID,916.76,VALID,0,VALID,96.9622,VALID,0,VALID,20.369,VALID,302,VALID,0,
2012-08-20, 03:29:05,VALID,916.794,VALID,0,VALID,96.947,VALID,0,VALID,20.3495,VALID,302,VALID,0,
2012-08-20, 03:30:05,VALID,916.759,VALID,0,VALID,96.9698,VALID,0,VALID,20.3495,VALID,302,VALID,0,
2012-08-20, 03:31:05,VALID,916.774,VALID,0,VALID,96.9546,VALID,0,VALID,20.3284,VALID,302,VALID,0,
2012-08-20, 03:32:05,VALID,916.791,VALID,0,VALID,96.9546,VALID,0,VALID,20.33,VALID,209,VALID,0,
2012-08-20, 03:33:05,VALID,916.796,VALID,0,VALID,96.947,VALID,0,VALID,20.3089,VALID,209,VALID,0,
2012-08-20, 03:34:05,VALID,916.773,VALID,0,VALID,96.947,VALID,0,VALID,20.33,VALID,209,VALID,0,
2012-08-20, 03:35:05,VALID,916.748,VALID,0,VALID,96.947,VALID,0,VALID,20.2894,VALID,209,VALID,0,
2012-08-20, 03:36:05,VALID,916.738,VALID,0,VALID,96.947,VALID,0,VALID,20.33,VALID,209,VALID,0,
2012-08-20, 03:37:05,VALID,916.752,VALID,0,VALID,96.9622,VALID,0,VALID,20.33,VALID,209,VALID,0,
2012-08-20, 03:38:05,VALID,916.707,VALID,0,VALID,96.947,VALID,0,VALID,20.3089,VALID,209,VALID,0,
2012-08-20, 03:39:05,VALID,916.717,VALID,0,VALID,96.9622,VALID,0,VALID,20.3089,VALID,209,VALID,0,
2012-08-20, 03:40:05,VALID,916.679,VALID,0,VALID,96.9546,VALID,0,VALID,20.3495,VALID,209,VALID,0,
2012-08-20, 03:41:05,VALID,916.698,VALID,0,VALID,96.9241,VALID,0,VALID,20.3495,VALID,209,VALID,0,
2012-08-20, 03:42:05,VALID,916.702,VALID,0,VALID,96.9394,VALID,0,VALID,20.33,VALID,209,VALID,0,
2012-08-20, 03:43:05,VALID,916.672,VALID,0,VALID,96.9241,VALID,0,VALID,20.33,VALID,209,VALID,0,
2012-08-20, 03:44:05,VALID,916.637,VALID,0,VALID,96.9241,VALID,0,VALID,20.33,VALID,209,VALID,0,
2012-08-20, 03:45:05,VALID,916.651,VALID,0,VALID,96.9241,VALID,0,VALID,20.3495,VALID,209,VALID,0,
2012-08-20, 03:46:05,VALID,916.618,VALID,0,VALID,96.8936,VALID,0,VALID,20.3089,VALID,209,VALID,0,
2012-08-20, 03:47:05,VALID,916.601,VALID,0,VALID,96.8707,VALID,0,VALID,20.33,VALID,209,VALID,0,
2012-08-20, 03:48:05,VALID,916.574,VALID,0,VALID,96.8631,VALID,0,VALID,20.2894,VALID,209,VALID,0,
2012-08-20, 03:49:05,VALID,916.56,VALID,0,VALID,96.8403,VALID,0,VALID,20.3105,VALID,209,VALID,0,
2012-08-20, 03:50:05,VALID,916.567,VALID,0,VALID,96.8174,VALID,0,VALID,20.3105,VALID,209,VALID,0,
2012-08-20, 03:51:05,VALID,916.567,VALID,0,VALID,96.7945,VALID,0,VALID,20.2909,VALID,209,VALID,0,
2012-08-20, 03:52:05,VALID,916.592,VALID,0,VALID,96.7411,VALID,0,VALID,20.2699,VALID,209,VALID,0,
2012-08-20, 03:53:05,VALID,916.576,VALID,0,VALID,96.7259,VALID,0,VALID,20.2909,VALID,209,VALID,0,
2012-08-20, 03:54:05,VALID,916.574,VALID,0,VALID,96.7107,VALID,0,VALID,20.2714,VALID,209,VALID,0,
2012-08-20, 03:55:05,VALID,916.601,VALID,0,VALID,96.6802,VALID,0,VALID,20.2504,VALID,209,VALID,0,
2012-08-20, 03:56:05,VALID,916.626,VALID,0,VALID,96.6649,VALID,0,VALID,20.2324,VALID,209,VALID,0,
2012-08-20, 03:57:05,VALID,916.585,VALID,0,VALID,96.6649,VALID,0,VALID,20.2129,VALID,209,VALID,0,
2012-08-20, 03:58:05,VALID,916.583,VALID,0,VALID,96.6649,VALID,0,VALID,20.2129,VALID,209,VALID,0,
2012-08-20, 03:59:05,VALID,916.573,VALID,0,VALID,96.6497,VALID,0,VALID,20.1529,VALID,209,VALID,0,
2012-08-20, 04:00:05,VALID,916.594,VALID,0,VALID,96.6497,VALID,0,VALID,20.1739,VALID,209,VALID,0,
2012-08-20, 04:01:05,VALID,916.595,VALID,0,VALID,96.6802,VALID,0,VALID,20.1544,VALID,209,VALID,0,
2012-08-20, 04:02:05,VALID,916.603,VALID,0,VALID,96.6802,VALID,0,VALID,20.1334,VALID,209,VALID,0,